Location: Sweet Grass
(48.9965°N, 111.9649°W)
Time: 07:16:17
(UTC+00:00)

N. Korean satellite - Pass Details

Date: 05 December 2022
Orbit: 407 x 442 km, 97.3° (Epoch: 04 February)

Event Time Altitude Azimuth Distance (km) Brightness Sun altitude
Rises 13:44:25 0° 2° (N) 2,520 10.0 -12.7°
Reaches altitude 10° 13:46:45 10° 348° (NNW) 1,633 8.9 -12.3°
Maximum altitude 13:49:36 24° 293° (WNW) 1,011 7.5 -11.9°
Drops below altitude 10° 13:52:25 10° 238° (WSW) 1,603 8.8 -11.4°
Sets 13:54:40 0° 224° (SW) 2,461 9.9 -11.1°
